DW9433 Weather Reports


Display with metric or nautical units.
time (UTC)temp
F
wind
direction
speed
MPH
gust
MPH
rain 1hr
in
rain 24hr
in
rain mn
in
humidity
%
barometer
mb
20260903191531 98 22 0.0 1.0 0.00 0.00 0.00 51 1013.4
20260903190030 98 25 0.0 3.0 0.00 0.00 0.00 50 1013.6
20260903184530 97 60 0.0 0.0 0.00 0.00 0.00 53 1013.7
20260903183028 98 57 0.0 0.0 0.00 0.00 0.00 49 1014.0
20260903181524 98 160 0.0 1.0 0.00 0.00 0.00 49 1014.1
20260903180024 98 159 0.0 2.0 0.00 0.00 0.00 52 1014.4
20260903174524 97 329 0.0 0.0 0.00 0.00 0.00 53 1014.5
20260903173020 97 298 0.0 0.0 0.00 0.00 0.00 54 1014.6
20260903171520 97 246 0.0 1.0 0.00 0.00 0.00 52 1014.8
20260903170018 97 156 0.0 0.0 0.00 0.00 0.00 54 1015.1
20260903164517 97 155 0.0 6.0 0.00 0.00 0.00 55 1015.1
20260903163016 97 178 0.0 1.0 0.00 0.00 0.00 53 1015.3
20260903161512 96 47 0.0 1.0 0.00 0.00 0.00 55 1015.4
20260903160012 95 31 0.0 1.0 0.00 0.00 0.00 58 1015.5
20260903154510 95 134 0.0 0.0 0.00 0.00 0.00 58 1015.5
20260903153008 94 29 0.0 0.0 0.00 0.00 0.00 58 1015.5
20260903151507 94 178 0.0 0.0 0.00 0.00 0.00 59 1015.5
20260903150004 93 179 0.0 0.0 0.00 0.00 0.00 59 1015.5
20260903144607 92 166 0.0 0.0 0.00 0.00 0.00 62 1015.7
20260903143055 91 139 0.0 1.0 0.00 0.00 0.00 65 1015.8
20260903141553 89 175 0.0 0.0 0.00 0.00 0.00 70 1015.6
20260903140048 87 118 0.0 1.0 0.00 0.00 0.00 73 1015.7
20260903134544 85 11 0.0 0.0 0.00 0.00 0.00 76 1015.7
20260903133044 82 11 0.0 0.0 0.00 0.00 0.00 80 1015.7
20260903131534 79 11 0.0 0.0 0.00 0.00 0.00 85 1015.7
20260903130033 76 11 0.0 0.0 0.00 0.00 0.00 89 1015.8
20260903124533 75 11 0.0 0.0 0.00 0.00 0.00 91 1015.9
20260903123032 75 11 0.0 0.0 0.00 0.00 0.00 91 1015.7
20260903121534 74 11 0.0 0.0 0.00 0.00 0.00 92 1015.5
20260903120039 74 11 0.0 0.0 0.00 0.00 0.00 91 1015.4
20260903114527 74 11 0.0 0.0 0.00 0.00 0.00 92 1015.3
20260903113044 74 11 0.0 0.0 0.00 0.00 0.00 91 1015.2
20260903111524 74 11 0.0 0.0 0.00 0.00 0.00 91 1015.1
20260903110022 74 11 0.0 0.0 0.00 0.00 0.00 90 1015.0
20260903104528 74 11 0.0 0.0 0.00 0.00 0.00 90 1014.9
20260903103029 74 11 0.0 0.0 0.00 0.00 0.00 89 1014.8
20260903101525 75 11 0.0 0.0 0.00 0.00 0.00 89 1014.7
20260903100023 75 11 0.0 0.0 0.00 0.00 0.00 88 1014.6
20260903094526 75 11 0.0 0.0 0.00 0.00 0.00 88 1014.5
20260903093014 75 11 0.0 0.0 0.00 0.00 0.00 87 1014.6
20260903091513 76 11 0.0 0.0 0.00 0.00 0.00 87 1014.5
20260903090012 76 11 0.0 0.0 0.00 0.00 0.00 86 1014.5
20260903084510 76 11 0.0 0.0 0.00 0.00 0.00 86 1014.5
20260903083009 76 11 0.0 0.0 0.00 0.00 0.00 85 1014.4
20260903081608 77 11 0.0 0.0 0.00 0.00 0.00 85 1014.2
20260903080007 77 11 0.0 0.0 0.00 0.00 0.00 85 1014.3
20260903074506 77 11 0.0 0.0 0.00 0.00 0.00 84 1014.2
20260903073005 78 11 0.0 0.0 0.00 0.00 0.00 83 1014.1
20260903071505 78 11 0.0 0.0 0.00 0.00 0.00 83 1014.3
20260903070003 78 11 0.0 0.0 0.00 0.00 0.00 82 1014.4
20260903064501 79 11 0.0 0.0 0.00 0.00 0.00 80 1014.4
20260903063001 79 11 0.0 0.0 0.00 0.00 0.00 82 1014.5
20260903061558 78 11 0.0 0.0 0.00 0.00 0.00 81 1014.5
20260903060100 77 9 0.0 0.0 0.00 0.00 0.00 84 1014.6
20260903054555 77 9 0.0 0.0 0.00 0.00 0.00 86 1014.4
20260903053054 78 9 0.0 0.0 0.00 0.00 0.00 87 1014.5
20260903051609 78 9 0.0 0.0 0.00 0.00 0.00 86 1014.4
20260903050055 78 9 0.0 0.0 0.00 0.00 0.00 86 1014.3
20260903044552 78 9 0.0 0.0 0.00 0.00 0.00 84 1014.4
20260903043145 79 9 0.0 0.0 0.00 0.00 0.00 84 1014.3
20260903041548 79 9 0.0 0.0 0.00 0.00 0.00 83 1014.3
20260903040048 79 9 0.0 0.0 0.00 0.00 0.00 82 1014.3
20260903034548 80 9 0.0 0.0 0.00 0.00 0.00 81 1014.2
20260903033050 80 9 0.0 0.0 0.00 0.00 0.00 81 1014.3
20260903031547 81 9 0.0 0.0 0.00 0.00 0.00 80 1014.4
20260903030047 81 9 0.0 0.0 0.00 0.00 0.00 79 1014.4
20260903024548 82 9 0.0 0.0 0.00 0.00 0.00 79 1014.4
20260903023046 82 9 0.0 0.0 0.00 0.00 0.00 77 1014.3
20260903021545 83 9 0.0 0.0 0.00 0.00 0.00 76 1014.1
20260903020044 83 9 0.0 0.0 0.00 0.00 0.00 75 1013.9
20260903014549 84 9 0.0 0.0 0.00 0.00 0.00 74 1013.7
20260903013052 85 9 0.0 0.0 0.00 0.00 0.00 73 1013.6
20260903011543 86 9 0.0 0.0 0.00 0.00 0.00 71 1013.5
20260903010044 87 9 0.0 0.0 0.00 0.00 0.00 69 1013.4
20260903004542 88 9 0.0 0.0 0.00 0.00 0.00 67 1013.3
20260903003048 90 9 0.0 0.0 0.00 0.00 0.00 64 1013.2
20260903001541 92 9 0.0 0.0 0.00 0.00 0.00 59 1013.2
20260903000041 93 9 0.0 0.0 0.00 0.00 0.00 58 1013.3
20260902234541 94 9 0.0 0.0 0.00 0.00 0.00 54 1013.3
20260902233040 95 9 0.0 0.0 0.00 0.00 0.00 52 1013.3
20260902231538 95 5 0.0 0.0 0.00 0.00 0.00 54 1013.4
20260902230038 94 5 0.0 0.0 0.00 0.00 0.00 57 1013.4
20260902224558 93 5 0.0 0.0 0.00 0.00 0.00 60 1013.5
20260902223037 94 5 0.0 0.0 0.00 0.00 0.00 61 1013.4
20260902221535 95 5 0.0 0.0 0.00 0.00 0.00 58 1013.6
20260902220039 96 5 0.0 0.0 0.00 0.00 0.00 52 1013.5
20260902214535 96 5 0.0 0.0 0.00 0.00 0.00 51 1013.6
20260902213034 97 5 0.0 0.0 0.00 0.00 0.00 50 1013.8
20260902211532 98 35 0.0 1.0 0.00 0.00 0.00 48 1013.8
20260902210031 98 9 0.0 0.0 0.00 0.00 0.00 48 1013.8
20260902204537 98 172 0.0 0.0 0.00 0.00 0.00 45 1014.0
20260902203030 99 173 0.0 0.0 0.00 0.00 0.00 43 1014.1
20260902201526 98 155 0.0 1.0 0.00 0.00 0.00 45 1014.3
20260902200045 99 166 0.0 1.0 0.00 0.00 0.00 44 1014.6
20260902194527 99 325 0.0 1.0 0.00 0.00 0.00 47 1014.6
20260902193021 99 145 0.0 2.0 0.00 0.00 0.00 43 1014.9